When you browse on this site, cookies collect data to enhance your experience and personalize the content and advertising you see.
Visit our Privacy Policy to learn more. By continuing to use the site, you agree to this use of cookies and data.
  • In Lithuania
  • List of Countries
  • For 7 days
  • Water Temperature
  • Weather Map
  • Weather Widgets
  • user-avatar
    Login

    Hourly Weather Salta

    Today, 29 March, Sunday

    Time Temperature Precipitation Wind Pressure Humidity
    00:00 +16°C° 0 mm 0 mps 650 mmHg 93%
    01:00 +16°C° 0 mm 0 mps 650 mmHg 94%
    02:00 +15°C° 0 mm 0 mps 650 mmHg 95%
    03:00 +15°C° 0 mm 0 mps 650 mmHg 94%
    04:00 +15°C° 0 mm 0 mps 650 mmHg 94%
    05:00 +15°C° 0 mm 0 mps 650 mmHg 93%
    06:00 +16°C° 0 mm 0 mps 651 mmHg 90%
    07:00 +17°C° 0 mm 0 mps 652 mmHg 87%
    08:00 +18°C° 0 mm 0 mps 653 mmHg 84%
    09:00 +22°C° 0 mm 1 mps 653 mmHg 77%
    10:00 +24°C° 0 mm 1 mps 654 mmHg 70%
    11:00 +26°C° 0 mm 2 mps 654 mmHg 62%
    12:00 +26°C° 0 mm 2 mps 654 mmHg 61%
    13:00 +27°C° 0 mm 2 mps 653 mmHg 61%
    14:00 +27°C° 0 mm 2 mps 652 mmHg 60%
    15:00 +26°C° 0.1 mm 2 mps 652 mmHg 63%
    16:00 +26°C° 0.1 mm 1 mps 652 mmHg 66%
    17:00 +25°C° 0.1 mm 1 mps 651 mmHg 69%
    18:00 +24°C° 0.1 mm 1 mps 651 mmHg 75%
    19:00 +23°C° 0.1 mm 1 mps 652 mmHg 80%
    20:00 +21°C° 0.1 mm 1 mps 652 mmHg 86%
    21:00 +21°C° 0.2 mm 1 mps 652 mmHg 87%
    22:00 +21°C° 0.2 mm 1 mps 653 mmHg 89%
    23:00 +19°C° 0.2 mm 0 mps 653 mmHg 90%

    Tomorrow, 30 March, Monday

    Time Temperature Precipitation Wind Pressure Humidity
    00:00 +19°C° 0.1 mm 0 mps 653 mmHg 91%
    01:00 +18°C° 0.1 mm 0 mps 653 mmHg 92%
    02:00 +18°C° 0.1 mm 0 mps 652 mmHg 94%
    03:00 +18°C° 0 mm 0 mps 652 mmHg 94%
    04:00 +18°C° 0 mm 0 mps 652 mmHg 94%
    05:00 +17°C° 0 mm 0 mps 652 mmHg 94%
    06:00 +18°C° 0 mm 0 mps 652 mmHg 93%
    07:00 +19°C° 0 mm 0 mps 653 mmHg 91%
    08:00 +19°C° 0 mm 0 mps 653 mmHg 90%
    09:00 +23°C° 0.2 mm 1 mps 654 mmHg 85%
    10:00 +24°C° 0.2 mm 1 mps 654 mmHg 81%
    11:00 +25°C° 0.2 mm 1 mps 654 mmHg 76%
    12:00 +26°C° 0.2 mm 2 mps 653 mmHg 74%
    13:00 +26°C° 0.2 mm 2 mps 652 mmHg 72%
    14:00 +27°C° 0.2 mm 2 mps 652 mmHg 70%
    15:00 +26°C° 0.2 mm 2 mps 651 mmHg 71%
    16:00 +26°C° 0.2 mm 2 mps 651 mmHg 73%
    17:00 +26°C° 0.2 mm 2 mps 650 mmHg 74%
    18:00 +25°C° 0.4 mm 1 mps 651 mmHg 80%
    19:00 +24°C° 0.4 mm 1 mps 651 mmHg 86%
    20:00 +23°C° 0.4 mm 1 mps 651 mmHg 92%
    21:00 +22°C° 0.8 mm 1 mps 652 mmHg 92%
    22:00 +22°C° 0.8 mm 1 mps 652 mmHg 92%
    23:00 +22°C° 0.8 mm 1 mps 652 mmHg 93%

    Day after tomorrow, 31 March, Tuesday

    Time Temperature Precipitation Wind Pressure Humidity
    00:00 +20°C° 0.5 mm 0 mps 652 mmHg 93%
    01:00 +20°C° 0.5 mm 0 mps 652 mmHg 94%
    02:00 +19°C° 0.5 mm 0 mps 652 mmHg 95%
    03:00 +19°C° 0.2 mm 0 mps 652 mmHg 95%
    04:00 +19°C° 0.2 mm 0 mps 652 mmHg 95%
    05:00 +19°C° 0.2 mm 0 mps 651 mmHg 96%
    06:00 +19°C° 0.2 mm 0 mps 652 mmHg 95%
    07:00 +20°C° 0.2 mm 0 mps 652 mmHg 95%
    08:00 +20°C° 0.2 mm 0 mps 653 mmHg 94%
    09:00 +21°C° 0.6 mm 0 mps 653 mmHg 92%
    10:00 +24°C° 0.6 mm 1 mps 652 mmHg 90%
    11:00 +24°C° 0.6 mm 1 mps 652 mmHg 88%
    12:00 +25°C° 1.4 mm 1 mps 652 mmHg 87%
    13:00 +26°C° 1.4 mm 1 mps 651 mmHg 85%
    14:00 +26°C° 1.4 mm 2 mps 650 mmHg 83%
    15:00 +25°C° 1.3 mm 2 mps 650 mmHg 86%
    16:00 +25°C° 1.3 mm 1 mps 649 mmHg 88%
    17:00 +24°C° 1.3 mm 1 mps 649 mmHg 91%
    18:00 +24°C° 0.5 mm 1 mps 649 mmHg 92%
    19:00 +23°C° 0.5 mm 1 mps 650 mmHg 94%
    20:00 +20°C° 0.5 mm 0 mps 650 mmHg 95%
    21:00 +20°C° 0.2 mm 0 mps 650 mmHg 95%
    22:00 +20°C° 0.2 mm 0 mps 651 mmHg 96%
    23:00 +20°C° 0.2 mm 0 mps 651 mmHg 96%

    1 April, Wednesday

    Time Temperature Precipitation Wind Pressure Humidity
    00:00 +20°C° 0.1 mm 0 mps 650 mmHg 96%
    01:00 +20°C° 0.1 mm 0 mps 650 mmHg 96%
    02:00 +20°C° 0.1 mm 0 mps 650 mmHg 96%
    03:00 +20°C° 0.1 mm 0 mps 650 mmHg 96%
    04:00 +20°C° 0.1 mm 0 mps 650 mmHg 97%
    05:00 +19°C° 0.1 mm 0 mps 649 mmHg 97%
    06:00 +20°C° 0 mm 0 mps 650 mmHg 96%
    07:00 +20°C° 0 mm 0 mps 650 mmHg 95%
    08:00 +21°C° 0 mm 0 mps 650 mmHg 94%
    09:00 +24°C° 0.1 mm 1 mps 651 mmHg 89%
    10:00 +25°C° 0.1 mm 1 mps 651 mmHg 84%
    11:00 +27°C° 0.1 mm 1 mps 651 mmHg 80%
    12:00 +27°C° 0.2 mm 2 mps 651 mmHg 76%
    13:00 +28°C° 0.2 mm 2 mps 650 mmHg 73%
    14:00 +28°C° 0.2 mm 2 mps 650 mmHg 70%
    15:00 +28°C° 0.2 mm 2 mps 649 mmHg 73%
    16:00 +27°C° 0.2 mm 1 mps 649 mmHg 77%
    17:00 +27°C° 0.2 mm 1 mps 649 mmHg 80%
    18:00 +26°C° 0.5 mm 1 mps 649 mmHg 84%
    19:00 +25°C° 0.5 mm 1 mps 650 mmHg 89%
    20:00 +24°C° 0.5 mm 1 mps 650 mmHg 93%
    21:00 +23°C° 2.7 mm 1 mps 651 mmHg 93%
    22:00 +23°C° 2.7 mm 1 mps 651 mmHg 92%
    23:00 +23°C° 2.7 mm 1 mps 652 mmHg 91%

    2 April, Thursday

    Time Temperature Precipitation Wind Pressure Humidity
    00:00 +22°C° 2.6 mm 1 mps 652 mmHg 93%
    01:00 +21°C° 2.6 mm 2 mps 652 mmHg 95%
    02:00 +21°C° 2.6 mm 2 mps 652 mmHg 97%
    03:00 +20°C° 4.3 mm 2 mps 652 mmHg 97%
    04:00 +20°C° 4.3 mm 2 mps 653 mmHg 97%
    05:00 +20°C° 4.3 mm 2 mps 653 mmHg 97%
    06:00 +19°C° 3.1 mm 2 mps 653 mmHg 97%
    07:00 +19°C° 3.1 mm 2 mps 654 mmHg 97%
    08:00 +20°C° 3.1 mm 1 mps 655 mmHg 96%
    09:00 +19°C° 2.6 mm 1 mps 655 mmHg 97%
    10:00 +18°C° 2.6 mm 2 mps 655 mmHg 97%
    11:00 +18°C° 2.6 mm 2 mps 656 mmHg 97%
    12:00 +19°C° 1.1 mm 1 mps 655 mmHg 97%
    13:00 +18°C° 1.1 mm 1 mps 655 mmHg 97%
    14:00 +18°C° 1.1 mm 1 mps 655 mmHg 97%
    15:00 +18°C° 0.2 mm 1 mps 654 mmHg 97%
    16:00 +18°C° 0.2 mm 1 mps 654 mmHg 97%
    17:00 +18°C° 0.2 mm 1 mps 653 mmHg 96%
    18:00 +16°C° 0 mm 0 mps 654 mmHg 96%
    19:00 +16°C° 0 mm 0 mps 654 mmHg 95%
    20:00 +16°C° 0 mm 0 mps 654 mmHg 95%
    21:00 +16°C° 0 mm 0 mps 654 mmHg 95%
    22:00 +16°C° 0 mm 0 mps 654 mmHg 95%
    23:00 +15°C° 0 mm 0 mps 654 mmHg 95%

    3 April, Friday

    Time Temperature Precipitation Wind Pressure Humidity
    00:00 +15°C° 0 mm 0 mps 654 mmHg 95%
    01:00 +15°C° 0 mm 0 mps 654 mmHg 96%
    02:00 +14°C° 0 mm 0 mps 653 mmHg 96%
    03:00 +14°C° 0 mm 0 mps 653 mmHg 96%
    04:00 +14°C° 0 mm 0 mps 653 mmHg 97%
    05:00 +14°C° 0 mm 0 mps 652 mmHg 97%
    06:00 +15°C° 0 mm 1 mps 653 mmHg 97%
    07:00 +16°C° 0 mm 1 mps 653 mmHg 96%
    08:00 +16°C° 0 mm 1 mps 653 mmHg 96%
    09:00 +16°C° 0 mm 1 mps 653 mmHg 94%
    10:00 +16°C° 0 mm 1 mps 652 mmHg 93%
    11:00 +16°C° 0 mm 1 mps 652 mmHg 91%
    12:00 +18°C° 0 mm 1 mps 651 mmHg 91%
    13:00 +18°C° 0 mm 1 mps 650 mmHg 90%
    14:00 +18°C° 0 mm 1 mps 650 mmHg 90%
    15:00 +18°C° 0 mm 1 mps 649 mmHg 89%
    16:00 +18°C° 0 mm 1 mps 649 mmHg 88%
    17:00 +18°C° 0 mm 1 mps 648 mmHg 87%
    18:00 +18°C° 0 mm 1 mps 649 mmHg 89%
    19:00 +16°C° 0 mm 0 mps 649 mmHg 90%
    20:00 +16°C° 0 mm 0 mps 649 mmHg 91%
    21:00 +15°C° 0 mm 0 mps 649 mmHg 92%
    22:00 +15°C° 0 mm 0 mps 649 mmHg 94%
    23:00 +14°C° 0 mm 0 mps 649 mmHg 95%
    Show more